Inquirer Daily News

Weather

Get conditions and forecasts for any City, State, ZIP code or Country:  
Northeast Philadelphia, PA
on Friday, December 28, 2012

Friday
Previous Day Next Day
Daily Summary
 ActualAverage (KTTN)Record (KTTN)
Temperature
Mean Temperature °F 32°F  
Max Temperature 39°F 40°F 66°F (2008)
Min Temperature 28°F 24°F 6°F (1933)
Degree Days
Heating Degree Days 32 33  
Month to date heating degree days 820  
Since 1 July heating degree days 1796  
Cooling Degree Days 0 0  
Month to date cooling degree days 0  
Year to date cooling degree days 965  
Moisture
Dew Point 22°F   
Average Humidity 63    
Maximum Humidity 78    
Minimum Humidity 53    
Precipitation
Precipitation 0.00 in 0.08 in 1.53 in (1942)
Month to date precipitation 3.45  
Year to date precipitation 46.19  
Wind
Wind Speed 11 mph   
Max Wind Speed 17 mph   
Max Gust Speed 24 mph   
Visibility 10 miles   
Events     

Key: T is trace of precipitation, MM is missing value
Source: NWS Daily Summary
Time(EST)TemperatureDew PointHumidity Pressure Visibility Wind DirectionWind SpeedGust SpeedPrecipitationEvents Conditions
12:54 AM 33.1°F 21.0°F 61% 29.94 in 10.0 miles NW 17.3 mph 24.2 mph N/A   Overcast
1:54 AM 33.1°F 21.0°F 61% 29.97 in 10.0 miles WNW 13.8 mph 21.9 mph N/A   Overcast
2:54 AM 33.1°F 21.0°F 61% 29.99 in 10.0 miles WNW 15.0 mph 20.7 mph N/A   Overcast
3:54 AM 33.1°F 21.0°F 61% 30.00 in 10.0 miles NW 11.5 mph 21.9 mph N/A   Overcast
4:54 AM 32.0°F 21.0°F 64% 30.01 in 10.0 miles NNW 15.0 mph - N/A   Scattered Clouds
5:54 AM 30.2°F 21.2°F 69% 30.03 in 10.0 miles NNW 11.5 mph - N/A   Clear
6:54 AM 30.0°F 19.9°F 66% 30.07 in 10.0 miles NNW 8.1 mph - N/A   Partly Cloudy
7:54 AM 30.9°F 21.0°F 67% 30.08 in 10.0 miles NNW 8.1 mph - N/A   Clear
8:54 AM 33.1°F 21.0°F 61% 30.10 in 10.0 miles NW 9.2 mph - N/A   Clear
9:54 AM 35.1°F 21.0°F 57% 30.12 in 10.0 miles NNW 10.4 mph 20.7 mph N/A   Clear
10:54 AM 36.0°F 21.9°F 57% 30.12 in 10.0 miles NNW 10.4 mph - N/A   Clear
11:54 AM 37.0°F 21.9°F 54% 30.10 in 10.0 miles NW 8.1 mph - N/A   Clear
12:54 PM 37.9°F 23.0°F 55% 30.06 in 10.0 miles NNW 9.2 mph - N/A   Clear
1:54 PM 39.9°F 24.1°F 53% 30.07 in 10.0 miles NW 10.4 mph - N/A   Clear
2:54 PM 37.9°F 24.1°F 57% 30.09 in 10.0 miles NW 8.1 mph - N/A   Clear
3:54 PM 39.0°F 23.0°F 53% 30.09 in 10.0 miles NW 6.9 mph - N/A   Clear
4:54 PM 37.0°F 24.1°F 59% 30.09 in 10.0 miles NNW 6.9 mph - N/A   Clear
5:54 PM 35.1°F 23.0°F 61% 30.09 in 10.0 miles NW 3.5 mph - N/A   Clear
6:54 PM 34.0°F 24.1°F 67% 30.09 in 10.0 miles Calm Calm - N/A   Clear
7:54 PM 34.0°F 24.1°F 67% 30.10 in 10.0 miles WNW 3.5 mph - N/A   Clear
8:54 PM 32.0°F 23.0°F 69% 30.09 in 10.0 miles North 4.6 mph - N/A   Clear
9:54 PM 28.9°F 21.0°F 72% 30.11 in 10.0 miles North 4.6 mph - N/A   Clear
10:54 PM 28.9°F 21.0°F 72% 30.11 in 10.0 miles Calm Calm - N/A   Clear
11:54 PM 28.0°F 21.9°F 78% 30.06 in 10.0 miles NE 3.5 mph - N/A   Clear
Astronomy
Sunrise:07:21 AM (EST) Moon Rise:05:16 PM (EST)12/28
Sunset:04:42 PM (EST) Moon Set:07:14 AM (EST)12/28
Moon Phase
Dec. 28 Jan. 04 Jan. 11 Jan. 18 Jan. 26

Copyright © 2014 The Weather Underground, Inc.